GFSNW_prec_cthk_000.txt.gz
RH
53 27 17 25 29 35 43 53 60 66 66 67 72 76 74 78 79 78 76 76 76 78 80 78 74 72 68 62 54 51 51 52 53 49 46 44 41 41 41 45 43 43 42 40
68 33 14 18 26 32 42 50 62 67 64 71 72 74 75 76 77 74 73 73 72 74 76 77 75 76 75 71 67 66 60 58 61 59 52 47 47 44 41 42 43 49 45 35
67 54 25 16 22 29 39 50 60 67 68 63 68 68 71 74 75 74 71 71 70 68 69 68 71 71 73 72 69 65 60 59 58 56 52 49 50 45 42 42 43 37 35 30
64 66 31 15 18 25 36 48 51 64 66 64 61 60 57 57 61 65 66 67 65 63 67 67 69 67 67 65 63 60 58 57 54 52 46 42 38 35 32 34 30 38 28 32
59 65 53 19 15 24 32 45 46 51 56 55 53 55 57 54 54 54 57 59 59 59 62 61 63 59 56 54 49 47 45 46 41 37 32 30 30 26 28 32 35 38 41 42
63 62 61 39 15 20 28 39 40 43 45 46 44 47 45 46 43 44 49 50 48 48 47 48 48 48 46 42 39 37 35 33 33 33 32 37 41 41 43 44 44 43 43 41
68 63 61 53 31 21 22 33 37 39 38 39 43 40 39 39 36 35 36 35 37 38 34 32 31 30 30 30 31 34 40 43 44 48 48 57 43 42 37 33 31 33 35 36
68 68 65 63 51 41 32 27 33 37 37 36 39 38 39 37 35 34 33 32 32 31 30 36 38 40 43 44 48 48 47 51 56 63 63 52 41 34 36 36 37 35 36 37
61 64 70 67 64 54 46 44 42 38 38 39 38 37 38 38 39 41 41 42 45 48 53 65 78 81 71 72 73 68 66 62 60 68 63 63 36 37 35 37 42 40 42 43
52 62 64 72 71 63 62 53 51 50 51 46 44 49 49 45 44 48 52 63 71 75 76 75 83 75 67 67 58 61 57 53 51 51 57 49 36 40 39 46 47 44 46 49
47 53 62 64 71 78 67 60 62 59 57 54 49 53 54 50 50 54 62 74 75 77 76 74 73 66 55 50 48 50 54 56 55 53 55 56 39 41 47 48 48 48 50 50
44 48 55 65 64 71 78 77 73 69 63 62 59 58 59 59 59 64 72 79 74 72 71 64 61 57 53 49 57 45 48 43 48 52 50 41 44 48 48 47 48 50 51 52
35 41 48 55 64 64 68 73 78 81 80 81 79 77 77 79 83 83 84 78 73 70 67 64 65 63 57 58 54 48 47 43 43 45 36 39 41 42 45 47 47 49 54 54
36 37 43 50 57 61 60 61 66 67 68 75 79 77 76 75 75 76 76 75 71 67 63 62 64 61 59 61 55 48 49 45 45 47 44 43 43 47 46 48 51 53 53 56
40 39 41 43 49 60 60 60 62 61 59 59 58 59 66 69 70 66 64 63 62 62 62 62 64 62 66 63 59 49 44 43 48 46 41 43 42 44 46 46 47 52 53 55
45 43 44 46 44 52 60 62 62 65 62 59 59 54 53 56 56 58 58 60 61 60 61 64 62 61 63 67 63 44 43 45 45 44 42 42 43 46 47 48 50 50 52 54
46 49 51 45 46 48 54 62 63 61 63 64 58 54 51 50 50 53 55 58 61 62 63 61 63 65 67 68 61 40 41 42 42 41 42 42 43 46 48 50 53 53 53 59
50 52 55 54 51 48 54 57 59 61 64 64 62 58 55 55 55 55 56 58 61 64 66 63 65 67 70 65 45 45 42 42 42 42 43 45 47 47 48 50 52 56 60 64
61 61 63 64 58 55 49 52 59 59 63 62 58 57 59 57 58 61 62 62 64 67 67 66 69 70 69 51 50 47 46 48 47 45 45 45 45 46 48 52 54 56 60 66
73 72 70 71 66 57 52 51 50 55 55 55 51 53 58 55 59 64 64 66 64 67 66 66 72 63 53 50 48 47 46 46 45 44 42 43 45 47 49 51 56 61 63 68
81 78 76 74 71 64 54 48 51 53 53 48 46 52 58 60 64 68 70 73 72 72 73 72 71 64 53 48 47 46 46 45 43 41 42 44 46 50 53 57 60 65 60 51
86 85 83 79 73 64 60 58 57 55 55 54 54 55 59 63 66 70 75 77 78 79 79 78 65 55 48 46 44 45 45 43 42 44 47 49 52 53 55 58 62 49 44 41
91 86 81 67 64 71 68 64 63 64 61 63 62 64 69 70 72 76 79 81 82 76 78 70 57 50 47 47 48 46 46 46 48 51 52 51 53 57 56 45 38 39 39 39
89 82 71 62 59 54 55 58 64 72 77 76 71 70 69 72 77 81 83 85 80 79 78 64 53 47 48 51 49 49 49 50 52 54 54 57 55 48 40 39 41 42 44 41
79 69 67 65 65 62 62 63 64 65 66 66 69 71 71 72 76 76 79 81 79 74 66 57 53 47 48 53 52 54 54 54 54 55 57 54 47 43 44 46 47 46 40 41
79 67 67 65 66 68 69 70 70 68 69 71 76 78 74 71 71 77 75 77 72 59 54 51 46 49 52 53 58 61 59 56 56 58 55 55 55 51 52 54 47 42 47 47
87 75 59 59 63 66 66 63 64 71 73 76 77 75 66 71 76 78 73 67 53 49 49 48 45 51 54 56 65 67 59 58 59 60 63 67 66 63 61 49 47 51 49 45

GFSNW_prec_cthk_003.txt.gz
RH
62 50 17 16 31 38 47 51 62 71 70 74 77 84 84 85 90 88 87 83 80 80 82 74 75 75 65 57 54 54 50 50 50 46 38 38 38 40 39 43 42 45 47 45
60 60 27 14 26 35 50 56 67 67 68 76 78 79 82 81 82 86 84 85 80 76 71 69 69 69 62 56 54 53 49 50 58 51 47 46 46 45 45 47 49 50 48 41
55 64 37 13 21 34 45 57 69 64 63 70 73 73 78 79 76 77 77 78 79 75 76 70 74 71 67 63 59 55 53 56 51 53 48 50 51 49 48 47 48 42 38 33
55 65 44 15 18 33 41 53 65 66 69 68 72 73 73 74 77 75 74 77 78 78 78 76 79 77 75 72 68 64 61 61 57 53 49 46 45 42 40 40 36 38 28 31
61 62 64 24 14 28 36 47 61 62 63 61 64 64 64 65 72 72 74 76 75 74 75 72 73 72 71 69 65 61 56 57 51 47 40 34 28 27 27 28 33 41 44 43
65 58 65 39 14 22 31 41 49 52 53 54 55 57 55 55 59 65 64 67 70 71 69 68 68 66 61 58 54 50 46 42 39 37 35 33 35 36 43 45 44 37 36 30
63 65 62 58 20 18 28 36 45 42 46 50 50 47 44 45 43 47 52 57 51 50 49 51 50 47 45 41 38 34 35 35 38 43 43 53 43 44 40 37 31 33 31 30
58 65 65 66 46 23 23 29 38 38 41 41 44 43 41 39 35 36 34 34 35 34 33 35 37 38 35 36 37 37 40 45 52 60 63 51 43 39 36 35 34 36 35 37
50 62 66 69 68 49 33 29 31 36 36 37 37 41 39 38 36 36 35 34 35 36 40 45 58 70 67 68 69 66 62 61 60 69 63 57 42 37 37 37 40 39 43 44
44 53 64 67 72 69 57 48 42 40 39 35 35 40 42 42 44 43 42 44 50 52 65 76 78 74 66 68 66 67 61 54 55 57 56 45 38 37 38 41 44 43 45 44
40 47 55 67 70 75 68 65 58 55 50 46 42 40 44 48 49 49 47 53 66 70 71 75 74 70 68 63 52 53 54 58 57 54 57 56 42 45 45 47 48 48 48 51
36 41 49 57 66 69 80 71 64 62 64 62 56 54 54 56 55 54 49 49 52 62 70 70 68 67 65 56 53 44 49 49 54 51 48 45 48 48 48 50 50 49 48 49
33 35 41 52 58 67 69 78 80 71 68 68 66 63 61 62 62 64 63 62 63 65 71 71 71 69 62 58 52 45 45 46 49 45 41 43 47 50 49 48 48 47 47 49
38 36 37 42 52 59 69 66 70 76 82 80 77 71 70 71 69 69 72 73 73 76 75 73 69 64 54 53 49 52 50 49 49 49 44 44 43 44 44 44 44 46 48 47
45 41 41 45 46 53 60 66 62 61 64 66 70 74 80 79 79 80 79 80 80 73 67 66 64 59 58 54 57 55 44 44 51 50 45 46 43 42 45 47 47 46 46 46
52 47 47 47 47 48 54 54 60 65 59 57 59 59 60 63 66 69 72 72 69 63 60 63 61 59 58 59 54 44 43 43 46 49 46 47 48 46 45 46 45 44 45 45
53 50 52 51 50 51 54 54 53 57 64 62 62 59 59 63 64 63 61 62 62 61 60 61 61 60 60 61 59 44 45 47 48 48 47 47 44 43 41 40 41 42 44 47
58 57 54 53 55 55 58 55 53 54 60 67 64 64 60 58 60 61 60 62 62 64 63 63 64 64 65 62 48 47 47 50 50 50 50 49 46 43 42 42 44 47 49 52
67 66 68 65 60 56 59 61 61 59 58 61 62 62 61 61 63 63 64 64 66 67 66 66 67 66 60 50 49 50 51 50 51 53 52 49 44 43 44 45 47 49 51 52
72 79 76 72 66 64 63 63 59 61 61 60 51 54 57 53 56 62 63 65 67 70 68 70 73 65 53 51 52 53 53 54 55 54 48 44 43 44 44 46 49 51 51 55
82 82 82 78 76 74 71 64 60 58 56 53 53 52 53 53 54 59 62 63 67 69 68 69 73 67 53 51 53 53 53 53 51 48 45 45 45 46 46 46 47 52 54 50
89 82 84 82 78 67 65 63 64 65 60 61 59 56 58 63 61 58 64 65 69 69 71 73 70 60 57 56 54 53 51 49 47 46 46 46 48 47 46 49 52 55 46 38
93 90 90 83 83 76 71 74 72 73 69 68 62 64 66 73 73 72 71 71 73 73 80 76 66 59 59 58 55 53 49 50 52 51 48 47 47 47 48 49 45 38 38 37
98 95 92 84 78 73 70 68 66 63 65 68 70 73 73 75 75 77 75 80 78 80 80 72 63 58 55 54 51 48 49 53 53 49 48 47 46 46 46 42 39 41 43 45
96 91 87 80 70 66 60 61 62 64 71 72 74 69 67 69 70 70 75 80 79 75 70 65 58 54 53 52 51 47 51 53 51 51 49 48 48 49 48 47 46 47 52 55
95 86 80 77 73 72 70 68 70 73 71 69 65 68 70 70 67 71 72 75 74 66 59 51 51 50 53 52 50 50 48 50 49 50 49 49 51 53 57 55 54 57 62 59
92 85 76 72 68 69 76 78 77 71 68 67 65 67 66 71 76 78 74 73 59 52 48 48 47 48 49 52 53 54 55 56 54 53 54 55 56 60 63 64 66 69 69 64

GFSNW_prec_cthk_006.txt.gz
RH
53 62 51 20 18 37 51 54 64 76 81 85 93 96 96 95 96 98 91 77 77 79 80 81 81 79 77 70 67 66 53 53 49 42 36 36 36 37 35 38 38 42 43 41
57 61 63 19 17 38 54 61 70 75 83 84 91 89 92 96 97 93 89 90 85 80 85 86 79 75 70 66 63 64 50 52 52 51 47 43 41 37 38 40 44 47 50 47
61 58 69 24 15 27 48 58 73 70 76 78 84 87 84 91 93 90 88 88 87 87 79 75 76 74 70 65 60 57 55 53 47 48 43 43 45 45 45 46 53 50 49 40
62 59 68 32 15 24 46 54 70 67 71 75 79 80 78 82 85 89 87 84 81 78 80 78 79 75 68 64 59 55 49 50 48 46 44 46 49 51 52 52 48 42 34 34
61 60 67 49 16 23 39 49 66 67 72 71 75 75 77 79 78 79 85 84 79 77 75 75 76 72 69 63 62 61 59 61 57 53 48 47 45 44 41 39 38 37 37 36
55 62 63 64 19 19 33 48 56 63 63 61 62 64 61 69 74 74 76 78 78 78 74 70 78 75 71 68 65 65 62 61 56 52 55 51 46 38 35 32 31 35 42 41
48 63 64 70 28 18 28 44 46 54 58 56 55 55 54 59 63 64 69 71 70 70 69 71 71 71 69 67 68 61 57 54 53 52 46 49 35 36 43 46 46 45 42 33
40 57 65 68 51 19 25 37 42 44 52 54 53 46 47 44 47 52 58 55 56 56 59 58 60 60 53 51 50 46 41 41 45 47 46 40 42 44 45 47 45 39 37 37
39 48 64 67 73 32 25 31 39 39 42 48 46 46 42 41 37 35 35 39 40 39 42 48 50 52 44 45 45 43 39 41 47 63 62 57 47 45 40 36 39 39 40 40
40 42 57 68 73 72 35 31 31 36 38 41 42 44 42 38 36 38 36 35 36 37 43 50 57 61 63 72 70 70 69 69 69 70 65 52 41 40 37 39 36 42 43 43
39 41 48 62 70 76 78 48 39 37 36 38 40 42 44 44 43 44 41 44 45 48 53 62 71 73 70 65 63 62 61 65 60 58 58 53 40 40 41 42 44 43 44 45
38 40 43 54 67 73 75 79 64 52 48 45 38 39 41 46 50 48 47 51 50 59 70 69 69 71 69 66 67 58 57 52 51 46 45 41 42 42 44 46 48 48 48 48
38 38 40 47 59 71 74 75 79 72 65 63 58 50 45 46 52 54 50 49 48 54 57 61 65 68 69 70 65 59 49 44 47 44 44 47 48 49 49 49 50 49 46 45
40 37 37 41 52 62 71 75 72 78 76 73 72 69 65 60 55 56 61 62 64 65 67 70 70 70 68 67 61 59 48 45 46 47 46 47 50 50 50 49 47 45 44 47
45 42 42 41 44 56 62 71 77 75 74 80 82 78 76 74 74 69 68 69 67 69 73 73 73 70 70 62 56 55 45 43 47 49 45 45 46 46 45 46 48 50 49 47
52 51 51 49 49 51 56 60 63 65 72 65 67 70 72 74 77 83 85 80 79 79 77 79 74 61 55 57 55 42 40 41 43 46 47 47 47 48 49 48 46 45 47 48
60 57 56 52 53 53 54 51 53 55 60 65 71 65 62 67 68 70 70 72 76 78 78 73 62 57 56 58 54 45 44 46 48 49 49 50 48 48 47 47 48 48 48 51
65 67 62 56 57 59 59 57 58 57 60 57 59 67 66 66 69 70 72 76 74 73 72 66 62 60 58 54 46 47 47 50 52 49 50 51 52 52 50 49 48 49 50 51
73 74 69 63 61 59 60 60 60 61 64 63 60 60 62 61 69 70 68 67 69 69 69 66 65 63 58 47 47 50 53 54 51 53 55 56 54 49 48 46 45 47 49 51
83 80 78 72 68 69 68 67 68 67 67 63 61 60 61 58 64 68 68 68 70 69 67 65 67 59 53 51 53 56 55 55 58 58 58 54 49 47 46 46 47 49 47 52
89 86 84 82 79 79 78 71 69 67 63 60 59 58 60 60 64 66 63 66 66 66 63 67 64 58 52 50 50 54 57 59 58 54 49 49 48 48 49 49 49 50 53 53
94 88 90 90 84 85 80 74 68 64 59 61 63 67 65 65 63 63 64 59 60 62 60 66 64 52 51 54 57 58 56 52 50 48 49 50 50 50 49 49 49 50 47 39
98 95 96 88 86 77 68 69 64 62 60 66 69 77 82 79 73 70 67 66 69 69 75 70 60 54 57 60 58 54 51 50 50 53 51 48 47 47 48 50 49 46 37 35
98 98 97 92 85 75 67 58 55 57 63 69 73 81 83 81 78 78 77 79 77 80 81 72 65 65 66 62 57 52 52 53 53 51 48 45 44 45 48 50 46 41 40 40
98 97 94 87 74 69 68 71 67 65 68 72 75 76 77 82 82 79 79 82 83 79 73 70 64 60 58 58 55 51 49 49 50 51 51 49 49 50 51 50 49 48 45 45
98 95 87 82 78 74 72 69 70 71 71 75 76 73 76 74 70 72 74 74 73 69 70 60 55 53 50 48 46 46 48 48 48 55 58 55 52 51 51 53 53 52 53 55
97 91 82 75 78 77 72 71 71 71 72 72 65 67 66 72 74 74 72 70 64 61 59 57 57 54 51 49 47 49 51 50 51 54 59 58 58 59 57 56 56 58 61 62

GFSNW_prec_cthk_009.txt.gz
RH
56 60 60 61 22 21 46 58 67 85 94 99 98 97 97 87 88 93 90 86 79 75 77 90 92 88 82 78 74 73 65 71 73 62 63 58 54 47 42 43 40 44 43 36
53 61 61 65 23 23 48 64 75 87 91 95 97 97 96 94 96 92 86 78 79 80 79 91 88 85 77 77 74 73 67 69 82 75 70 60 54 43 38 39 40 43 46 41
49 60 61 66 25 27 47 63 73 82 86 92 91 92 97 97 95 92 82 80 79 80 82 81 81 83 79 72 73 75 68 71 63 56 54 50 44 38 36 39 47 46 46 46
46 58 62 66 31 19 35 57 72 73 80 82 86 85 92 95 94 90 90 83 77 78 83 76 79 78 76 73 72 72 70 61 61 50 38 42 38 40 43 44 44 48 49 53
43 57 62 68 42 18 32 57 68 70 76 74 79 82 87 88 87 87 91 86 83 78 78 76 77 73 67 66 64 64 55 57 52 46 41 43 42 44 50 52 53 54 53 46
41 52 63 68 58 17 31 50 66 71 76 74 73 75 79 85 85 87 88 87 87 84 74 70 72 72 71 70 69 64 58 57 53 50 50 47 47 46 46 49 47 40 36 31
39 46 62 66 68 18 27 45 60 64 67 67 63 63 70 78 79 83 87 80 78 78 78 76 80 74 73 71 68 63 64 62 60 60 58 59 48 53 48 43 40 36 41 45
39 41 55 65 73 28 24 42 54 52 62 62 59 59 64 71 69 76 81 82 79 76 76 77 83 85 76 74 75 71 68 67 68 67 64 51 53 46 42 42 49 51 53 52
40 40 47 65 72 54 22 37 49 47 52 57 54 50 53 52 59 66 69 71 70 69 71 72 72 72 67 67 61 55 53 50 51 62 58 53 43 41 40 44 56 55 51 43
40 39 43 61 70 75 30 32 43 46 43 50 53 50 46 44 46 47 47 51 53 56 62 67 67 64 55 60 57 51 47 47 48 50 51 47 45 45 48 53 43 41 40 41
40 39 43 53 70 76 69 34 37 42 43 45 47 49 46 43 41 40 37 40 42 44 51 53 56 56 52 55 62 68 68 74 72 74 73 68 52 46 43 41 41 41 43 43
40 38 41 48 63 74 82 69 40 40 40 41 43 44 49 48 48 43 41 43 41 44 49 52 56 61 67 71 71 65 65 57 59 56 52 42 40 40 41 42 43 45 45 46
40 38 40 45 55 69 77 83 82 51 46 45 45 43 43 48 54 54 51 51 51 52 52 62 66 67 67 67 65 62 59 58 57 51 49 45 43 44 45 47 48 48 49 47
41 39 39 42 50 63 74 80 82 85 75 60 56 53 48 46 45 51 56 55 55 53 57 60 63 64 61 64 63 63 61 59 55 51 49 49 47 47 47 48 47 46 45 44
43 42 40 40 46 54 70 79 84 81 82 85 78 72 62 58 56 53 53 55 58 60 62 61 63 67 68 67 66 68 63 57 56 49 44 46 47 47 47 47 45 44 43 43
46 46 45 44 45 51 59 70 77 82 78 76 87 83 79 77 76 72 69 63 62 64 69 71 71 69 66 67 62 52 50 48 46 45 45 46 47 47 47 45 43 41 42 44
53 55 56 56 55 55 53 52 59 71 73 75 81 78 76 82 83 84 85 85 87 85 83 84 80 79 77 74 64 46 43 43 43 44 46 49 50 50 48 45 44 43 46 47
65 64 63 65 64 60 60 53 52 56 58 60 67 69 68 71 74 75 74 75 76 77 78 75 73 72 68 61 49 46 45 44 45 46 47 47 48 48 47 43 45 46 43 43
77 72 69 71 69 66 62 62 62 59 59 61 59 61 61 62 72 75 79 81 81 82 81 78 75 73 65 50 48 46 47 47 47 49 48 48 48 45 45 48 46 43 43 45
85 81 74 74 73 72 67 68 67 67 67 63 63 61 62 58 62 68 68 73 79 80 79 76 73 63 56 55 52 51 50 52 51 50 51 51 49 50 50 48 47 47 48 48
91 86 81 80 88 82 74 74 76 70 64 61 61 59 62 64 67 68 67 72 71 71 67 69 64 55 47 46 46 49 55 55 55 50 49 50 51 50 48 46 46 48 49 48
92 88 89 97 94 91 86 79 72 69 65 61 64 66 67 68 66 68 69 68 66 62 63 65 58 44 41 42 44 45 45 45 47 51 54 54 50 46 45 45 46 47 48 49
98 96 98 96 95 90 83 79 72 65 63 68 67 72 76 77 73 75 70 67 62 59 64 61 51 46 51 53 50 48 49 52 54 55 51 49 47 44 44 44 45 48 49 50
98 98 97 97 91 78 70 64 61 61 65 68 70 73 77 83 85 87 85 80 76 76 74 63 55 54 56 56 55 55 54 53 50 48 47 45 44 45 44 45 47 49 49 47
98 97 97 92 84 77 72 68 66 67 69 68 73 77 78 85 87 83 83 84 80 72 65 59 56 58 58 58 56 53 49 48 46 42 42 44 46 48 48 48 49 51 49 47
98 96 92 87 87 82 78 76 73 73 74 77 77 83 84 85 83 84 82 79 72 62 60 55 57 58 58 54 50 48 46 44 45 44 43 44 46 48 52 55 57 55 53 54
97 92 87 83 84 83 79 83 82 81 79 79 75 77 79 78 76 74 71 66 57 55 53 53 55 56 53 52 51 49 49 47 45 43 43 44 47 54 56 58 58 57 57 57

GFSNW_prec_cthk_012.txt.gz
RH
44 51 58 69 71 39 31 54 72 90 98 98 97 97 97 95 93 90 93 89 82 72 79 84 88 91 86 78 74 71 65 63 70 64 59 64 64 60 58 63 59 56 51 41
43 49 58 69 72 41 30 58 79 94 97 99 99 97 95 92 93 94 94 88 85 75 78 83 83 94 86 78 76 71 66 67 78 74 67 61 59 58 60 60 58 53 48 40
45 48 58 68 73 43 32 63 80 91 95 98 98 98 96 96 96 96 90 83 79 82 83 87 94 94 87 79 77 73 69 70 65 66 61 64 65 62 60 61 59 48 43 33
46 48 56 66 74 46 30 56 69 80 92 94 96 94 96 98 97 93 84 86 80 77 83 86 91 86 85 83 81 80 73 72 69 66 64 65 65 68 61 51 36 40 35 44
46 47 55 63 73 56 21 45 61 74 81 83 92 89 95 96 91 90 84 83 83 76 74 74 82 81 79 74 77 78 76 73 68 67 61 54 50 53 45 37 37 39 43 47
47 46 51 62 71 70 24 43 63 71 82 82 84 82 90 90 88 94 84 82 83 85 82 77 80 76 76 74 72 73 76 71 64 69 64 57 44 40 51 49 48 49 54 53
46 45 48 61 69 76 23 36 63 71 76 78 77 75 85 87 84 90 88 86 83 80 80 77 78 79 74 74 71 67 68 67 66 61 59 54 39 44 42 49 49 49 50 45
44 44 45 58 68 76 30 30 61 67 67 72 71 68 80 82 84 91 86 88 88 81 81 84 87 85 79 78 80 75 73 68 68 63 59 49 47 47 50 52 55 48 48 50
44 45 44 49 67 74 55 28 56 65 62 61 61 64 70 76 74 84 86 83 83 82 84 82 90 92 88 75 73 68 65 62 64 76 76 68 58 58 52 50 58 53 56 58
45 46 44 47 62 72 72 30 49 65 56 56 57 56 61 64 62 73 80 82 80 81 85 89 85 87 78 76 72 69 72 73 70 71 65 58 52 50 52 58 52 55 55 58
47 47 44 47 57 70 78 43 40 59 58 52 58 53 53 52 55 60 63 69 69 71 75 77 76 73 68 70 66 63 60 62 62 61 59 54 44 46 54 55 57 51 47 44
49 47 44 47 51 67 77 76 38 48 56 54 54 58 53 51 57 50 46 50 50 53 60 60 62 63 60 57 60 56 62 66 67 69 70 69 66 58 51 47 44 45 45 44
50 47 43 47 52 61 74 85 70 42 49 56 54 54 54 56 52 50 47 44 43 43 42 49 52 52 53 59 64 67 65 62 65 63 60 56 52 48 44 44 45 46 45 45
49 47 43 47 52 57 69 80 89 76 46 50 56 55 53 52 55 59 59 55 53 55 55 56 57 60 61 66 66 64 62 62 62 63 61 58 54 51 50 48 47 45 44 43
48 46 44 47 51 59 67 75 84 90 88 66 56 56 57 55 53 53 58 63 62 61 60 61 65 66 66 70 69 65 61 59 60 62 60 57 53 49 47 46 44 43 43 42
47 45 46 48 53 58 66 72 79 86 88 89 86 73 64 61 58 55 55 55 55 57 61 64 65 63 62 65 63 56 58 50 53 58 57 57 51 48 45 44 43 43 42 41
52 48 50 51 55 58 61 59 67 79 83 85 93 94 88 76 72 67 65 64 64 63 64 62 60 62 64 64 61 56 60 51 47 49 50 51 49 47 47 46 43 40 40 40
59 58 58 61 60 64 61 55 57 65 75 79 84 83 83 87 87 84 81 81 81 82 83 81 79 79 76 74 70 74 68 58 51 49 46 46 46 45 45 42 40 40 41 41
71 69 73 71 69 70 67 63 59 59 61 71 75 77 77 76 79 80 81 84 86 85 85 82 78 78 74 62 58 55 48 46 48 48 49 49 48 45 42 41 41 42 44 43
80 82 79 80 74 73 71 69 64 64 66 62 60 60 63 62 66 75 78 84 88 85 80 79 80 73 68 65 61 57 49 51 52 52 53 49 44 43 42 41 43 42 42 45
92 86 82 82 84 80 75 73 70 67 65 62 62 62 64 65 66 69 66 71 71 73 72 75 70 63 57 58 59 58 52 50 50 50 45 44 43 41 42 44 43 43 43 42
93 88 90 92 87 85 80 77 74 69 64 63 63 65 64 65 64 65 68 69 68 67 64 68 58 48 44 44 46 50 52 52 55 49 45 45 46 48 46 41 39 40 40 41
97 96 97 91 94 94 82 77 73 68 62 62 67 72 72 70 68 68 69 68 68 60 64 58 48 41 43 42 43 46 48 46 48 52 51 52 52 45 41 40 39 38 40 42
98 97 97 95 94 83 76 70 68 68 73 75 73 76 77 79 76 75 74 74 71 72 66 59 50 46 48 45 44 45 49 51 54 56 53 47 45 43 41 40 39 40 42 45
98 97 96 90 82 78 77 75 73 73 76 77 80 80 80 83 80 77 77 77 77 68 67 61 54 55 55 52 52 53 53 53 51 47 46 45 42 40 39 40 41 44 47 47
98 97 93 89 87 83 80 76 78 79 81 82 79 82 82 84 83 81 77 74 70 63 61 55 56 55 54 54 53 53 52 51 49 48 45 42 40 39 40 41 45 47 48 48
97 94 91 87 86 86 84 82 83 82 84 83 82 83 85 85 83 82 77 72 61 58 57 58 58 56 55 54 52 50 51 51 50 48 45 43 41 40 41 44 47 47 49 49

GFSNW_prec_cthk_015.txt.gz
RH
51 50 49 55 63 73 59 43 60 76 97 96 97 98 96 96 96 93 92 74 65 57 59 80 87 82 90 86 83 76 66 65 77 66 70 72 65 73 70 69 64 62 58 51
52 52 50 55 65 72 58 48 66 85 95 96 96 96 96 95 95 92 94 85 61 65 71 87 77 77 82 87 81 73 68 69 76 76 68 65 63 64 67 66 65 59 58 51
53 53 51 56 66 72 61 49 71 89 93 98 98 97 96 96 96 96 95 88 77 72 76 78 76 83 84 80 82 75 71 71 66 66 61 62 62 59 65 65 69 60 56 53
53 54 52 55 67 72 67 41 61 84 91 96 98 98 97 96 97 96 97 89 83 75 79 83 78 83 85 82 80 77 75 72 66 62 60 58 59 59 58 59 57 61 58 60
54 55 53 55 67 72 76 36 53 72 77 86 95 98 98 95 97 94 88 83 77 74 71 72 77 68 81 78 79 79 75 74 69 67 67 65 65 65 62 63 66 65 55 39
56 54 54 55 66 70 80 34 41 67 77 85 93 90 93 97 96 91 84 79 77 83 77 75 77 80 81 78 79 77 79 74 73 74 71 69 64 59 60 59 63 50 42 28
56 54 54 54 63 70 82 46 42 69 80 85 86 82 92 95 93 94 84 83 86 80 78 76 83 85 85 83 81 81 84 77 76 75 70 70 59 55 46 47 48 47 42 43
56 55 54 53 61 71 78 56 37 69 78 79 79 81 86 90 93 93 91 84 89 81 79 84 89 88 84 85 87 80 81 78 77 75 69 57 52 50 44 44 49 48 50 51
55 55 53 52 56 70 76 68 34 68 79 71 67 75 79 85 90 95 93 88 87 89 88 87 96 93 90 86 83 76 72 81 89 77 67 58 56 58 50 46 48 51 57 59
56 54 52 51 53 66 76 77 38 59 77 70 60 65 71 77 83 90 92 93 94 92 90 89 88 90 87 84 81 86 84 83 71 74 71 66 62 58 54 59 55 57 55 54
57 55 52 50 53 59 76 81 54 50 74 70 59 57 59 68 65 83 86 88 88 94 95 92 84 81 79 80 77 72 73 77 78 78 75 66 57 56 54 53 54 57 58 60
60 55 52 50 53 57 73 83 74 48 66 74 68 59 58 61 60 66 80 83 83 83 85 87 85 82 83 76 76 71 71 65 64 58 52 53 56 61 63 60 57 64 55 51
68 58 53 51 52 56 68 81 85 53 51 72 71 64 60 58 57 59 63 66 64 65 65 70 71 70 71 70 67 62 57 57 65 68 66 64 62 60 58 56 53 46 45 45
69 62 55 51 51 57 65 77 87 79 47 56 72 69 64 61 57 58 53 52 50 50 51 54 53 53 53 57 57 58 61 64 63 62 62 62 63 61 58 55 53 51 49 45
68 62 56 50 52 57 64 74 83 92 73 59 57 68 66 61 61 62 60 57 53 56 58 58 59 57 59 63 63 64 64 65 63 60 54 55 58 62 64 60 55 52 46 40
65 63 59 51 54 61 65 74 77 85 93 82 75 61 66 66 61 59 62 64 64 64 65 66 64 61 60 63 63 57 59 59 57 53 49 52 56 62 65 60 52 45 40 38
69 64 57 52 56 64 70 71 72 78 85 91 94 85 75 69 66 68 64 62 61 63 68 68 66 65 61 61 60 53 54 56 56 54 50 52 54 61 62 53 44 40 38 39
65 63 57 58 60 65 72 69 69 75 77 80 91 92 87 81 78 74 69 68 66 63 64 63 63 64 62 60 52 50 52 59 63 62 60 52 52 51 47 42 39 38 38 39
64 62 63 62 64 64 71 66 68 68 71 79 76 82 91 91 88 85 84 82 81 78 75 73 71 72 71 63 66 70 73 65 61 65 61 52 45 43 41 38 42 43 42 36
74 70 69 68 68 68 75 79 69 70 75 64 67 70 77 81 87 88 84 84 83 82 81 81 80 68 64 61 57 56 57 57 53 50 53 52 50 46 46 45 42 39 35 35
88 83 81 75 76 76 78 78 74 69 66 62 62 61 64 68 70 74 77 84 87 84 80 82 77 68 63 65 65 65 66 65 65 56 54 51 46 43 41 40 38 36 41 44
90 83 87 88 87 84 81 79 76 72 66 65 64 64 62 66 67 71 71 71 69 68 68 70 62 49 45 52 54 56 58 58 56 46 45 45 42 42 41 41 43 44 42 41
97 96 96 91 93 93 83 79 74 71 65 66 65 66 66 67 63 66 65 65 68 63 65 59 49 43 42 43 48 51 56 58 53 49 49 45 45 47 48 49 46 43 41 39
97 97 97 94 94 82 73 68 68 66 67 70 71 71 70 70 68 67 67 69 65 65 62 55 50 48 46 44 44 49 55 59 58 52 50 50 49 52 52 49 46 42 39 39
98 98 97 92 86 82 77 74 71 73 76 76 80 80 76 77 75 72 71 72 66 60 61 56 52 54 54 54 57 61 59 56 53 51 51 53 51 49 47 44 41 39 39 41
98 97 96 91 90 87 82 77 76 79 83 83 79 85 85 83 79 78 75 71 66 60 60 55 58 59 55 56 56 54 51 49 49 50 51 50 47 44 43 42 42 41 42 43
97 96 93 92 90 89 87 81 81 84 86 83 81 80 79 81 80 76 73 70 64 61 60 60 65 62 60 59 57 55 54 53 53 53 51 48 47 46 45 44 43 44 44 45

GFSNW_prec_cthk_018.txt.gz
RH
63 59 57 60 63 65 70 72 71 58 69 90 98 98 97 95 96 97 93 79 54 53 57 63 77 69 82 73 75 82 78 70 76 88 79 80 80 79 77 75 65 56 50 43
65 60 59 61 64 66 72 68 77 60 77 93 96 97 97 96 96 95 95 81 57 51 54 63 79 77 76 82 74 73 71 68 73 75 77 75 74 75 75 69 60 60 59 47
67 61 60 62 64 67 74 70 80 62 81 95 97 97 97 97 95 94 96 93 70 51 60 62 65 76 80 84 79 74 70 66 58 61 57 57 62 66 65 64 70 59 52 51
69 63 61 64 64 69 76 67 74 59 85 91 96 97 96 96 97 97 98 88 69 59 56 72 68 71 79 85 81 81 77 67 63 59 59 55 56 61 60 60 53 59 52 58
71 63 62 66 64 70 76 72 60 57 80 87 96 98 96 96 95 95 96 91 76 63 60 70 65 69 72 77 80 80 77 74 67 63 61 59 57 55 57 58 58 52 51 50
74 63 63 65 65 67 77 82 61 45 63 79 95 97 96 97 94 95 90 87 82 74 64 69 75 71 81 81 78 78 79 77 74 72 67 65 62 54 53 51 52 50 49 48
77 67 67 64 65 67 79 80 72 40 56 79 92 92 96 98 97 95 84 80 75 74 72 71 79 82 80 82 80 82 81 76 73 72 67 83 57 54 51 52 47 48 50 52
73 67 64 63 64 64 78 83 80 45 63 82 85 88 95 97 97 92 86 81 80 81 85 85 92 90 90 93 87 84 85 80 81 74 67 59 54 53 54 53 42 44 47 49
82 65 64 64 63 63 77 83 88 42 63 80 75 78 93 96 98 97 88 90 86 83 85 87 94 96 92 89 96 82 85 95 88 80 72 65 53 54 51 48 41 39 44 48
85 64 65 64 63 63 75 82 88 44 62 82 68 72 82 88 96 97 93 90 94 92 89 90 91 94 83 86 90 88 82 85 88 89 94 57 58 62 57 56 56 56 53 51
83 71 66 66 63 62 71 82 86 54 57 81 72 64 74 80 89 95 94 94 95 97 95 96 89 92 82 77 79 85 83 81 85 88 79 68 62 64 61 55 55 55 54 53
84 67 63 66 62 61 67 81 85 74 56 78 75 62 63 76 75 88 95 93 91 93 96 92 88 82 86 80 77 76 79 74 72 69 66 66 63 59 56 55 61 61 60 64
82 72 66 65 61 60 65 77 85 87 54 68 78 72 62 65 75 75 90 94 93 91 90 90 87 80 77 77 75 74 73 73 70 67 62 60 66 67 63 63 60 62 60 57
83 71 69 65 62 60 65 74 84 88 66 53 74 75 70 63 63 65 77 81 80 78 80 81 80 78 75 75 72 70 66 60 59 61 64 66 61 62 62 62 60 56 54 51
84 68 66 65 63 61 65 73 81 87 85 57 56 74 77 71 62 61 67 64 65 66 64 65 69 67 63 62 62 58 56 56 59 60 58 57 56 54 53 55 58 61 60 55
83 68 70 67 62 63 66 74 78 84 92 83 61 55 70 75 73 67 64 62 61 57 59 60 61 59 58 62 59 57 57 59 60 58 59 58 56 52 52 56 58 61 58 48
90 79 77 72 64 64 68 73 74 80 90 94 94 75 59 62 70 72 72 69 67 65 65 64 64 64 62 59 54 47 49 49 50 51 51 54 53 52 53 56 59 56 45 40
89 80 80 74 72 68 72 72 75 83 88 92 96 98 84 70 66 69 71 73 72 71 71 68 64 64 62 58 48 46 47 46 48 51 52 55 54 55 58 61 59 42 39 38
93 82 80 79 75 76 77 77 81 81 86 86 78 83 94 93 86 80 77 77 76 72 68 66 63 60 60 49 44 46 53 56 62 63 60 61 62 62 59 51 40 37 38 38
95 80 80 80 77 78 81 82 81 82 88 75 73 76 78 84 91 93 85 82 82 79 76 76 72 61 51 54 55 56 57 56 55 59 61 55 56 49 44 40 43 46 44 39
93 86 79 76 79 76 76 82 75 75 70 66 69 72 75 79 81 86 91 91 89 84 75 75 64 54 50 53 54 55 57 61 61 66 63 61 62 58 51 49 44 40 36 35
87 77 77 82 81 78 77 77 76 68 63 62 65 68 69 72 70 72 74 78 78 78 75 77 68 55 52 56 62 66 68 68 73 72 63 53 47 45 43 40 38 36 38 46
96 89 84 77 80 81 72 72 69 66 62 63 65 69 69 69 64 65 66 68 69 65 69 64 55 51 50 56 58 60 59 62 63 59 52 48 44 42 40 38 40 48 49 46
98 98 92 82 82 72 65 61 61 59 66 70 72 73 73 70 67 66 68 67 65 66 63 52 44 46 48 53 56 59 60 57 55 55 53 49 43 42 47 51 51 49 46 43
98 96 94 88 84 79 74 70 68 70 76 75 76 75 75 75 73 68 68 70 66 57 51 48 49 51 51 52 57 60 60 57 58 62 60 55 54 52 51 50 48 47 47 45
98 97 94 88 87 87 81 76 76 79 82 80 77 79 79 78 74 73 71 65 62 54 54 52 54 55 57 58 64 69 71 72 67 57 54 52 50 51 50 50 50 49 48 47
97 95 92 91 89 89 87 82 83 85 85 83 82 81 81 82 82 78 71 68 63 63 61 59 59 57 59 66 68 64 58 55 55 55 54 54 53 52 51 51 51 51 50 49

GFSNW_prec_cthk_021.txt.gz
RH
95 86 76 72 65 69 72 75 78 78 80 79 70 94 97 96 95 97 97 88 74 56 57 59 66 73 70 71 78 93 93 94 98 94 88 82 78 72 67 62 61 52 49 49
98 90 88 75 71 72 73 76 77 79 83 68 78 97 97 97 97 97 96 87 68 53 56 59 67 70 68 84 80 83 85 82 98 98 92 87 82 79 71 67 61 57 54 52
97 89 79 74 71 74 76 77 79 79 84 63 88 97 97 97 96 96 94 87 65 53 51 52 64 70 71 79 76 84 83 76 71 75 76 82 76 75 73 68 65 59 55 56
97 88 78 75 75 77 78 77 75 79 76 75 93 97 96 97 97 96 93 96 71 53 50 52 58 63 71 76 81 80 81 71 64 60 63 64 70 72 73 74 68 61 57 56
97 85 81 72 75 78 77 75 72 83 71 66 91 97 96 97 96 97 97 97 70 55 47 48 61 70 75 77 78 75 78 72 67 64 59 58 58 56 59 58 59 55 54 52
93 93 81 74 77 73 72 76 77 80 55 60 86 94 96 96 96 94 94 92 82 62 54 57 71 70 72 77 81 79 81 77 71 71 62 60 60 51 48 48 48 51 50 48
96 92 82 75 73 70 71 77 84 90 57 48 74 91 96 97 97 95 94 94 88 73 69 71 74 70 74 76 78 77 80 80 77 79 68 78 55 51 49 48 47 49 49 50
96 95 79 77 72 73 71 78 85 92 59 50 81 92 97 98 98 97 90 87 88 84 77 71 81 85 78 80 79 79 82 84 82 77 70 62 57 54 53 53 50 48 48 47
99 97 84 73 71 73 72 78 88 94 66 52 84 82 94 98 98 97 91 85 80 80 81 82 92 93 89 94 91 84 89 88 88 77 73 71 57 54 52 52 52 45 41 46
98 94 75 76 76 71 71 77 88 96 70 54 82 78 91 97 98 98 91 84 88 93 82 86 91 93 82 91 92 92 95 94 95 91 84 70 58 58 56 56 55 48 42 43
98 96 81 82 76 70 70 76 89 96 68 60 84 78 77 90 95 97 94 93 92 92 94 93 88 89 81 82 87 85 86 93 94 96 95 85 63 59 60 61 60 53 53 56
96 93 77 74 70 71 71 78 89 96 71 63 84 72 70 83 92 95 95 95 94 96 97 91 84 84 86 77 87 81 87 75 77 77 75 69 65 66 64 62 60 57 57 58
98 96 82 74 70 71 69 76 89 95 80 60 85 76 69 75 84 88 97 95 95 93 93 94 95 85 83 84 77 78 78 79 72 70 68 70 69 66 59 61 59 58 59 59
98 95 80 74 72 70 69 73 88 94 88 67 76 80 74 69 77 82 90 96 95 95 94 94 93 89 82 82 79 75 73 76 74 71 72 62 60 64 64 63 63 61 61 57
97 97 83 77 74 70 70 74 87 91 89 81 61 77 77 71 68 69 83 88 87 89 92 88 89 85 82 79 76 73 70 69 61 56 56 54 54 59 60 56 51 51 52 53
97 95 78 72 71 71 71 75 82 88 87 90 72 63 83 80 72 68 70 76 78 80 81 79 79 80 77 75 69 64 62 56 53 53 56 59 61 62 60 57 54 55 52 52
99 91 79 80 79 70 69 71 81 86 88 90 90 67 60 80 85 77 73 73 70 72 72 68 65 63 65 65 62 56 56 57 56 56 54 53 51 52 53 53 52 55 52 49
99 93 81 82 81 73 69 70 78 90 90 87 94 91 73 57 68 82 83 81 78 78 74 68 65 65 61 58 51 49 49 48 46 45 46 47 49 50 53 55 56 58 55 50
99 97 86 82 80 73 70 77 81 82 93 92 89 92 96 88 69 61 66 73 79 79 78 74 70 65 62 50 48 46 44 45 44 47 51 55 58 61 64 64 62 61 53 40
99 97 89 87 79 74 73 81 86 88 85 87 86 89 92 97 97 95 83 77 75 77 73 71 73 64 54 51 49 50 51 53 58 59 61 57 53 53 56 59 55 41 39 41
98 96 92 92 89 86 87 90 87 93 87 78 79 80 84 82 84 91 95 94 90 84 76 77 68 57 52 54 54 54 55 57 56 53 51 54 53 56 56 51 49 51 48 42
98 92 95 92 91 94 92 92 87 74 70 70 74 77 75 79 79 81 87 88 88 89 79 81 65 56 56 52 53 57 58 59 62 59 60 63 64 64 59 54 48 41 38 37
98 96 98 94 93 92 81 79 78 73 64 63 66 73 75 78 75 75 77 81 77 70 71 68 58 52 50 53 55 58 65 69 72 70 72 65 56 50 44 41 39 38 37 37
98 97 96 88 83 70 67 60 62 60 57 60 67 70 75 73 76 70 71 64 62 66 63 55 48 49 50 56 60 62 64 62 63 65 58 51 47 45 42 40 40 40 45 48
98 96 92 82 75 70 66 63 60 59 62 65 75 77 76 80 79 70 70 72 69 59 52 46 45 45 50 58 59 61 60 60 61 59 54 51 48 45 43 45 49 50 50 49
98 97 89 80 76 72 68 63 66 68 72 72 74 80 81 80 76 73 71 67 61 53 51 47 50 52 56 62 61 61 58 57 59 61 59 57 52 53 55 54 52 51 50 49
97 96 91 88 82 76 72 72 74 77 81 81 80 81 82 80 80 75 67 65 62 60 58 58 58 58 60 65 66 63 62 64 70 67 58 56 56 56 56 55 54 53 53 54

GFSNW_prec_cthk_024.txt.gz
RH
94 98 98 93 96 91 93 77 79 71 84 86 81 83 68 92 97 96 96 92 86 76 61 66 72 77 70 72 83 94 92 98 99 98 90 91 88 79 72 65 67 66 57 55
98 99 98 91 99 88 85 79 77 79 83 81 83 82 79 97 97 96 97 97 82 70 67 63 64 73 72 75 76 81 96 98 97 95 91 96 93 77 70 65 62 69 61 59
98 98 98 95 99 91 77 85 79 83 83 81 87 78 86 98 97 96 96 93 81 71 66 56 66 69 73 75 76 80 93 96 98 98 78 76 81 77 72 71 68 63 59 55
96 98 97 98 95 88 79 81 78 76 81 86 88 78 93 97 98 97 96 90 80 71 59 54 61 72 77 80 80 84 90 94 92 84 80 79 76 74 74 69 62 63 62 55
98 98 95 92 92 88 83 80 79 78 80 89 84 84 94 97 97 97 96 90 76 68 57 50 58 70 74 75 80 80 81 89 79 70 76 77 76 75 73 68 67 63 63 59
94 98 99 99 88 86 79 81 75 77 81 91 79 64 93 96 96 95 92 91 84 64 59 55 77 63 66 80 77 78 83 85 76 77 65 67 68 60 62 66 62 60 64 57
97 97 95 90 95 82 80 81 76 80 88 89 69 73 91 96 96 97 95 96 85 61 63 59 66 76 76 80 81 77 75 78 83 84 70 79 57 54 51 50 48 51 54 54
97 96 96 92 89 83 82 79 80 84 91 92 69 75 89 94 98 98 96 96 90 78 68 74 91 90 87 84 81 82 77 82 86 84 76 70 62 58 56 56 51 47 47 51
96 95 98 98 91 79 82 77 80 86 95 89 67 73 92 96 98 98 95 93 92 84 76 75 85 85 85 85 84 80 79 82 87 87 84 79 66 58 53 51 59 52 50 51
95 97 99 94 78 82 78 76 81 88 96 90 66 84 91 96 98 98 97 88 92 88 81 76 80 82 78 82 79 80 86 91 91 90 87 77 67 61 56 60 60 52 49 46
96 98 97 95 82 84 74 77 79 88 96 91 65 85 88 89 98 97 94 91 90 89 89 86 81 84 88 83 79 84 86 90 92 93 91 88 68 64 64 65 62 58 54 54
97 99 98 95 84 78 75 77 78 89 98 96 67 88 87 82 93 98 95 95 88 92 93 87 82 84 81 79 86 77 85 80 85 84 80 72 69 68 64 63 62 62 60 56
95 98 99 95 84 81 76 76 79 89 99 94 66 81 80 80 88 95 97 96 95 94 93 90 85 83 84 80 76 81 81 79 76 75 73 72 73 69 67 65 60 60 58 58
93 98 98 93 84 85 83 75 79 91 98 95 63 82 80 76 79 91 95 97 98 97 97 96 95 92 84 84 81 78 80 81 78 75 74 74 72 71 67 62 64 63 61 59
93 98 98 94 86 83 78 76 78 91 98 98 72 77 83 76 76 86 89 96 98 98 98 96 96 93 90 87 85 81 78 75 78 77 74 72 67 63 62 61 57 53 50 49
93 98 98 93 81 78 78 75 74 88 96 97 91 71 85 77 77 78 83 90 94 92 94 95 92 87 84 85 84 72 73 73 72 68 58 58 57 55 59 60 61 59 53 52
93 98 98 95 82 79 76 74 73 82 95 96 91 83 69 83 83 80 78 80 86 87 85 85 83 81 79 81 78 66 65 65 60 58 59 62 61 59 57 54 51 51 50 52
92 98 99 98 87 85 82 77 76 80 91 93 93 90 79 67 86 91 82 77 79 84 86 79 74 72 70 71 63 60 63 60 56 54 50 47 47 47 48 49 51 52 54 55
92 98 99 98 93 83 76 78 78 83 95 93 84 90 90 79 64 73 88 89 86 82 83 83 79 73 67 57 56 53 53 53 53 52 50 47 47 48 52 57 61 60 61 58
98 99 95 91 85 78 82 83 83 80 85 92 94 87 89 95 91 73 64 67 76 81 79 78 77 71 62 61 57 53 51 47 48 50 54 55 59 59 60 59 59 55 53 52
98 97 96 90 86 90 95 94 85 82 81 82 86 92 95 94 95 97 90 87 80 75 68 69 69 63 60 59 60 56 55 55 58 59 61 60 58 57 55 55 56 53 50 44
95 97 98 95 92 94 91 90 87 82 80 76 75 86 92 92 91 94 92 92 92 86 79 81 71 62 58 56 56 57 56 56 57 56 56 58 58 58 59 58 57 51 50 48
98 99 98 96 94 92 81 78 80 74 70 70 72 75 79 86 84 84 82 83 80 74 76 71 67 62 53 51 53 58 63 67 66 69 68 66 68 69 68 62 55 49 42 39
98 98 96 91 88 78 74 70 70 66 63 65 70 74 78 78 82 82 78 76 69 69 66 58 54 52 55 57 58 59 61 63 68 73 73 71 67 59 54 50 46 41 41 40
99 97 94 88 82 78 74 72 70 69 68 72 75 76 75 80 82 78 73 69 68 62 55 52 50 50 54 58 60 60 64 64 67 67 63 60 55 51 49 44 43 44 44 44
98 96 91 88 85 80 75 74 70 69 70 72 71 79 80 80 76 74 72 69 63 57 56 52 48 49 56 59 62 64 65 66 66 62 60 57 52 50 46 47 48 48 50 55
98 95 89 88 86 82 76 74 74 73 73 75 73 75 76 76 76 75 68 66 63 61 57 54 55 59 61 62 65 65 63 63 62 62 61 60 57 53 51 52 57 58 58 58

GFSNW_prec_cthk_027.txt.gz
RH
88 89 88 92 98 99 98 97 90 81 98 87 80 72 73 79 79 90 97 96 97 89 83 78 67 66 68 72 85 95 93 93 91 94 88 90 88 83 80 87 98 92 66 55
88 89 95 92 98 95 98 86 93 85 97 89 74 74 78 84 85 97 97 97 97 86 77 77 64 61 59 79 86 92 96 97 97 94 94 96 96 88 83 92 90 74 64 58
93 96 96 96 97 98 98 90 89 98 95 76 74 81 82 87 92 97 97 97 93 88 77 71 69 63 65 74 80 87 94 98 99 99 95 92 95 96 95 91 86 76 65 58
97 98 97 94 97 97 97 86 93 92 81 76 74 85 88 82 97 97 97 97 97 86 77 70 65 63 71 80 81 88 96 98 98 88 89 85 88 85 84 88 81 73 65 62
95 92 98 96 95 99 97 87 91 72 79 78 87 88 87 81 97 97 97 97 94 85 71 58 58 68 77 86 82 85 91 98 96 94 80 79 81 76 78 79 77 74 73 65
94 98 97 98 98 99 94 90 80 95 85 78 88 93 88 80 90 95 96 96 91 79 61 55 63 68 74 77 83 78 83 91 95 92 88 78 78 70 69 69 66 68 71 64
94 97 98 97 97 91 98 81 75 84 78 83 92 95 84 89 96 97 95 96 88 76 62 66 69 66 73 79 86 79 78 83 89 86 72 80 66 62 63 73 69 68 64 73
96 94 96 98 98 100 96 82 77 85 80 82 94 92 90 93 94 96 96 96 86 69 69 81 81 81 80 81 82 88 79 80 89 83 81 70 61 58 60 60 58 59 56 64
92 95 96 98 98 92 91 85 84 85 79 92 95 87 91 91 97 98 97 97 92 83 76 76 85 91 85 87 85 85 84 84 90 91 86 81 65 60 55 56 61 53 52 52
89 95 96 96 98 98 95 88 85 79 82 95 95 89 90 95 98 98 98 97 96 91 92 86 87 88 82 87 89 90 89 89 92 89 87 76 68 64 60 61 57 53 52 53
83 94 95 98 98 96 94 87 82 79 86 96 93 87 89 95 96 98 97 98 95 95 95 86 86 80 82 81 77 78 78 83 88 90 91 87 66 64 62 62 59 57 52 52
82 92 94 97 97 94 91 84 78 82 90 97 94 82 92 93 92 95 97 98 94 94 88 85 81 81 79 82 85 75 83 79 84 86 80 71 70 66 65 65 63 63 61 60
86 91 97 98 98 91 88 81 80 82 90 97 95 73 91 90 87 95 98 97 98 95 93 91 85 81 78 84 83 83 81 80 81 84 76 75 73 69 68 66 62 61 61 61
83 89 97 98 98 94 88 79 81 81 94 98 95 70 89 88 86 92 98 99 97 96 95 92 92 88 81 86 82 80 79 80 81 79 76 74 73 70 69 69 66 63 62 62
83 89 98 98 98 94 86 83 81 83 93 99 97 73 82 85 80 86 94 95 98 98 98 95 95 94 89 88 86 79 78 79 80 79 75 71 72 73 71 66 65 67 60 54
80 90 97 98 98 94 90 87 78 79 93 99 98 83 75 85 80 89 91 96 98 96 98 97 97 96 91 91 86 77 76 74 75 76 74 73 71 70 67 59 61 61 60 58
81 91 97 98 97 93 92 88 80 75 93 98 97 93 72 86 80 85 84 92 94 95 94 95 95 92 88 88 86 74 73 74 75 73 68 64 64 63 60 64 64 60 55 50
78 90 98 99 99 93 91 87 82 78 91 94 97 95 84 76 86 86 87 87 86 91 92 89 90 88 83 82 69 68 69 69 68 63 60 64 65 62 58 54 51 51 51 51
75 93 99 99 96 91 83 88 82 83 87 93 90 92 93 85 74 86 93 90 87 84 89 92 87 80 79 69 70 64 66 68 66 61 58 59 55 52 51 51 51 53 57 60
81 99 98 95 91 92 90 91 85 85 85 85 87 90 87 91 88 72 74 90 96 91 87 82 83 79 69 65 60 58 57 57 59 59 61 59 58 57 58 57 60 64 64 59
95 98 98 96 99 98 95 94 88 82 79 79 85 87 87 90 96 96 86 73 70 68 69 73 73 71 64 63 62 60 56 55 54 53 54 57 59 61 68 66 61 60 56 53
98 99 99 99 98 97 96 91 89 81 76 73 74 83 93 92 91 96 95 95 92 83 80 80 76 64 57 58 62 66 66 65 63 62 63 63 63 61 61 60 59 56 55 56
98 99 99 97 95 94 86 81 80 78 73 67 67 78 88 94 95 96 93 93 88 78 75 71 65 66 59 50 50 56 59 60 62 63 65 65 66 67 70 66 63 64 60 53
98 99 98 93 85 77 71 68 69 66 66 66 70 77 80 79 84 85 83 85 78 74 69 57 51 51 55 55 56 58 61 65 68 74 76 76 77 75 74 70 63 54 48 47
99 98 95 82 77 74 74 73 71 70 73 75 79 80 80 84 86 80 78 78 74 63 53 49 48 48 50 53 56 60 62 67 67 73 73 73 70 68 65 59 53 47 46 45
98 96 88 80 79 77 77 78 77 74 77 79 80 82 82 83 78 76 72 66 61 54 55 52 50 51 54 56 58 59 65 64 68 73 71 66 61 58 55 52 49 48 47 48
98 97 90 86 82 81 81 82 81 79 80 84 82 83 77 80 79 72 65 61 57 59 57 55 54 56 60 62 62 66 64 62 66 67 62 59 58 56 55 54 53 51 52 53

GFSNW_prec_cthk_030.txt.gz
RH
89 97 98 87 82 87 99 93 98 99 98 97 86 78 76 65 74 81 84 83 94 95 94 83 77 61 54 64 74 94 94 98 98 93 87 89 83 86 73 78 69 65 83 64
90 98 99 96 87 94 96 97 98 99 98 94 87 80 78 73 79 87 88 94 96 94 93 85 71 58 57 67 78 96 97 98 97 97 98 92 92 72 63 65 69 79 94 75
88 95 98 85 86 91 98 98 98 98 98 91 88 88 78 78 83 89 92 96 97 96 86 75 74 66 61 64 78 89 97 98 97 97 94 92 97 91 83 77 88 78 94 89
73 92 97 98 95 93 97 99 97 83 82 82 87 91 84 79 88 92 95 96 97 95 88 74 71 65 68 75 86 94 97 98 98 97 96 98 89 91 90 83 81 84 76 90
77 86 96 98 97 95 98 97 96 88 77 77 88 85 77 84 94 88 97 97 96 95 86 70 58 61 66 81 90 96 96 98 98 99 94 97 96 94 92 93 94 97 86 74
77 77 95 98 99 98 98 98 83 79 88 94 91 80 83 90 91 85 91 95 97 90 80 68 60 68 75 81 87 93 95 98 99 94 92 96 98 96 95 97 94 89 80 65
68 79 95 95 96 98 98 96 87 83 90 88 82 90 93 97 94 95 96 96 95 85 73 62 60 66 71 76 77 83 89 90 95 97 76 79 70 66 73 75 75 71 74 65
64 81 93 96 98 97 99 97 88 86 88 93 93 87 96 95 93 97 97 95 94 87 78 70 73 75 74 75 77 79 87 87 93 95 86 74 69 64 64 70 72 72 68 65
67 84 92 98 98 99 99 96 92 83 94 87 82 88 96 97 96 97 97 98 95 82 72 77 83 85 87 79 82 81 84 80 88 89 84 79 66 62 59 63 71 63 62 59
69 81 91 94 95 96 98 98 89 78 81 88 86 96 96 95 96 97 98 98 97 83 78 85 82 85 82 85 81 83 84 80 83 87 87 75 68 65 60 62 61 58 57 55
65 77 86 95 97 98 98 94 87 82 88 84 93 96 95 98 97 98 97 99 96 90 87 83 81 79 80 80 79 79 83 82 79 87 87 77 66 66 62 60 58 56 55 55
65 74 87 95 96 98 98 96 92 88 83 81 96 95 94 96 96 97 97 97 96 92 90 87 80 80 80 79 84 75 77 68 72 76 78 71 71 66 66 65 64 63 59 57
57 72 86 94 98 97 97 96 92 83 78 88 96 93 88 94 97 98 98 97 98 97 91 90 85 80 75 77 79 78 70 72 80 77 73 74 73 70 69 67 66 65 64 64
55 77 83 93 98 98 98 93 90 79 83 92 94 92 87 95 96 94 97 98 98 98 94 91 89 88 77 77 78 79 77 79 80 80 77 75 74 74 72 71 70 67 66 65
53 71 84 94 98 96 92 92 85 81 86 97 98 93 83 94 92 92 96 98 98 98 98 94 92 92 88 88 85 84 79 79 84 82 76 76 73 74 75 72 70 69 66 67
64 75 85 94 98 98 95 93 79 79 86 97 98 96 80 89 92 91 96 97 99 98 98 95 95 93 95 94 91 81 79 80 82 82 82 79 77 77 79 74 72 69 66 60
65 73 85 94 98 98 96 90 78 76 85 97 98 97 81 85 91 93 92 95 98 98 98 96 94 96 94 93 91 81 78 80 80 81 80 81 79 79 77 74 64 64 64 61
65 72 87 95 97 98 95 90 83 76 84 91 98 98 89 79 90 90 91 95 96 96 97 95 96 94 92 90 80 77 78 80 80 82 75 72 70 71 70 68 68 64 56 51
67 75 92 99 98 96 96 97 94 84 82 86 93 97 95 85 86 89 92 94 91 92 94 94 94 91 90 77 72 75 74 75 75 75 72 70 74 69 65 60 54 52 51 51
70 86 97 97 94 95 94 98 96 92 85 79 88 91 95 92 88 82 87 95 95 92 86 85 89 83 74 74 70 67 67 70 72 70 67 64 66 61 59 58 55 54 56 58
82 98 99 98 99 98 97 99 95 89 84 77 78 87 91 90 95 91 80 79 84 87 86 85 81 76 69 65 65 64 61 61 61 62 63 61 60 61 63 63 64 64 64 61
94 98 98 99 99 98 96 93 92 84 75 71 70 77 88 91 93 97 97 94 84 74 74 72 71 64 60 60 62 63 64 63 62 61 57 60 61 62 65 68 65 62 56 53
99 99 99 98 98 95 86 81 81 80 74 65 65 73 88 91 94 96 96 96 95 87 83 73 62 60 60 59 54 57 64 69 69 69 69 70 72 72 68 64 64 62 58 58
98 99 98 97 89 79 74 70 72 68 69 71 68 68 73 84 97 97 93 89 84 82 78 61 54 51 53 55 53 54 58 64 66 66 67 70 68 70 69 72 72 70 67 59
98 98 98 89 83 78 75 72 74 74 77 77 79 78 74 80 86 87 85 83 79 68 59 53 49 47 48 48 51 56 62 66 68 70 73 72 71 74 71 70 69 62 53 49
98 98 93 86 83 78 77 77 77 78 81 80 79 83 82 84 82 81 75 73 63 54 54 52 51 51 51 52 54 58 59 63 64 69 73 75 73 68 68 65 58 54 51 49
98 96 91 88 85 80 80 80 83 84 87 90 84 82 80 84 83 77 68 63 56 55 56 55 54 54 56 58 60 61 65 65 64 68 74 71 66 62 57 55 55 54 53 52

GFSNW_prec_cthk_033.txt.gz
RH
72 88 98 98 92 97 85 87 96 98 96 98 97 86 77 70 71 70 73 74 81 83 84 91 90 75 58 49 56 75 81 90 92 89 92 87 88 92 92 85 73 68 80 53
69 86 93 96 97 97 91 92 91 96 99 97 97 87 79 68 77 78 77 81 84 89 93 92 88 70 55 57 62 74 90 95 94 94 97 98 97 97 97 88 72 66 64 39
68 74 83 94 94 98 98 96 96 99 98 98 91 88 79 77 80 80 78 87 91 95 92 91 82 70 56 58 63 75 90 97 97 94 92 98 98 96 89 90 80 63 55 46
58 68 75 88 88 93 94 95 98 94 93 98 92 83 85 82 83 80 85 91 93 95 94 90 73 68 66 67 71 85 94 95 98 97 96 97 98 95 90 80 66 74 65 72
52 69 75 79 86 90 87 95 98 94 93 94 96 96 89 85 87 82 87 93 93 94 94 80 73 62 65 64 80 92 97 96 98 97 95 97 95 95 91 86 78 78 87 79
55 68 77 80 89 91 91 97 94 96 97 97 96 88 91 90 83 86 92 90 92 93 93 82 74 67 68 73 88 96 98 98 98 97 99 98 98 95 86 87 83 78 93 80
56 70 78 84 89 88 85 88 92 96 96 90 81 87 89 88 83 96 95 94 95 91 92 84 74 70 70 79 81 89 95 98 99 99 94 97 88 87 91 91 92 93 92 87
49 67 78 92 90 91 93 98 96 93 94 92 91 92 91 91 95 97 96 96 96 94 93 85 73 65 68 67 74 80 86 94 98 98 98 84 73 89 92 93 95 94 90 81
45 60 74 86 88 90 91 97 96 91 88 85 91 94 92 97 96 97 97 97 98 95 87 82 72 74 73 74 75 80 84 91 92 90 93 86 73 65 72 84 91 83 87 85
45 61 75 89 91 91 94 97 98 93 84 90 89 92 92 89 96 98 96 97 99 95 83 78 75 78 80 84 75 82 90 88 88 89 85 80 73 72 68 70 72 73 72 72
45 61 76 91 94 93 92 95 97 93 88 90 82 85 92 96 97 98 97 98 98 95 84 87 79 77 76 78 77 76 80 85 85 84 89 77 71 67 63 63 63 63 62 62
43 45 76 87 91 93 94 96 95 89 90 84 87 84 95 96 97 98 98 98 99 94 81 84 84 78 80 79 81 77 80 75 75 72 80 71 72 69 69 67 65 64 61 62
36 49 75 86 90 88 91 97 97 92 88 85 84 85 95 96 97 97 98 97 96 98 88 91 86 80 75 79 75 78 74 72 71 69 67 73 72 70 69 67 67 64 62 58
41 55 70 84 90 90 92 95 95 92 87 87 85 96 97 94 96 98 98 97 98 98 98 98 93 81 76 76 73 72 70 71 73 76 76 81 75 74 73 70 70 68 67 66
49 61 71 81 88 93 93 95 95 90 87 89 93 98 92 96 98 97 98 98 98 98 99 93 91 87 83 78 72 73 75 76 79 81 76 74 72 75 75 73 72 72 70 69
47 58 70 80 89 93 92 96 90 88 84 95 98 98 92 94 96 96 96 98 98 98 98 97 91 88 88 88 86 78 77 76 75 78 80 79 78 76 77 75 76 75 73 72
41 52 67 80 88 90 89 89 86 81 84 94 98 98 91 89 95 96 96 98 98 98 98 98 95 93 90 90 89 80 78 79 81 81 82 85 84 81 81 82 78 75 73 69
39 52 67 80 88 92 94 91 89 79 82 91 98 98 95 85 93 98 95 97 96 96 97 96 97 95 92 90 81 81 80 79 81 82 81 78 80 82 83 82 79 69 68 67
44 56 68 87 92 91 94 94 91 83 83 88 91 97 98 85 90 94 96 97 97 94 95 97 96 95 94 81 79 78 77 79 80 82 79 77 78 78 78 75 73 71 65 54
50 65 88 95 95 97 98 99 96 89 82 82 87 92 98 96 90 92 94 94 96 92 87 86 89 84 76 79 75 75 75 75 77 80 80 78 81 79 72 65 61 57 54 53
66 84 96 97 100 99 98 97 95 92 85 76 74 89 93 95 96 90 87 90 89 90 87 87 80 75 70 70 70 69 67 69 72 73 69 67 67 69 63 60 59 59 62 63
74 94 96 99 99 98 96 91 90 87 83 76 73 74 89 95 95 97 96 91 84 73 72 73 71 60 59 63 65 66 65 64 63 63 66 67 65 66 69 68 69 69 66 65
88 98 99 98 97 96 86 80 81 81 74 74 70 72 81 90 94 97 96 95 91 87 83 74 63 56 56 56 57 57 61 63 63 65 66 66 65 67 68 70 69 68 64 62
96 98 98 98 94 87 78 74 75 76 77 78 76 73 75 80 95 96 95 93 88 86 82 66 57 54 53 54 57 57 56 61 64 65 69 70 73 75 73 70 68 64 63 69
98 98 98 94 88 83 81 80 78 79 81 80 83 82 76 78 87 89 92 89 83 73 64 56 50 48 50 50 51 54 57 61 67 72 73 74 74 72 71 70 67 68 70 64
98 97 98 92 87 88 84 83 83 84 87 88 86 87 84 83 81 86 83 80 72 61 58 51 50 52 51 51 52 54 58 61 63 66 71 73 73 71 74 73 70 68 60 55
94 95 94 92 90 89 86 86 88 89 89 91 88 86 83 86 83 78 69 65 60 58 56 55 53 54 55 57 58 60 62 65 66 66 68 68 74 77 73 72 66 58 57 54

GFSNW_prec_cthk_036.txt.gz
RH
61 72 84 83 96 97 90 88 86 83 94 98 98 97 88 84 81 67 61 58 62 68 69 71 72 78 81 73 61 63 63 76 76 71 71 81 86 95 92 98 93 89 87 48
57 61 71 86 95 98 98 89 93 97 98 96 95 92 91 87 84 73 71 69 68 75 76 79 76 83 81 73 67 65 66 79 82 75 83 90 97 97 97 93 96 84 86 48
58 51 66 84 92 95 96 91 98 98 96 98 95 93 91 89 81 77 76 78 76 80 80 81 87 89 83 68 63 65 71 80 85 88 83 91 98 97 98 98 97 81 70 50
51 60 67 78 90 84 90 90 94 96 88 98 96 93 87 88 85 77 80 79 77 80 84 92 93 88 76 66 65 71 79 85 95 92 93 96 98 97 98 98 86 80 54 52
51 59 64 77 80 82 92 97 99 98 93 95 98 93 94 86 83 83 81 79 79 79 90 94 93 81 72 65 72 79 87 95 97 94 93 97 98 97 95 95 86 66 57 57
52 50 63 77 86 88 93 98 98 99 97 94 96 92 89 87 83 86 79 80 81 88 92 95 94 83 71 65 72 84 97 97 97 90 95 97 99 98 96 95 89 80 80 76
56 43 62 73 79 89 89 95 96 97 95 97 94 92 91 91 90 88 84 88 86 88 91 96 93 83 75 65 77 90 96 98 98 94 97 95 86 92 96 91 84 78 82 81
62 56 62 67 80 85 87 93 96 96 96 94 93 91 89 90 91 88 88 94 96 97 98 96 90 82 72 66 72 79 86 95 95 98 96 89 73 80 93 93 85 77 80 81
64 56 61 70 81 86 88 88 94 95 91 90 89 88 93 96 95 93 95 96 98 99 96 94 86 74 59 69 69 80 86 92 96 95 96 94 76 66 81 85 89 79 80 81
64 52 54 78 82 89 93 94 98 94 93 92 92 90 93 94 94 96 96 97 98 99 97 94 85 68 68 76 72 88 95 96 97 98 97 87 78 72 72 77 72 81 81 79
54 45 44 74 82 87 91 95 93 91 90 90 86 87 93 93 93 95 96 98 98 98 96 88 78 71 69 76 76 78 84 88 86 89 96 87 81 73 68 64 68 70 71 76
47 41 53 75 83 85 88 91 90 97 94 89 85 88 87 89 92 96 97 97 98 97 87 76 81 77 77 75 81 81 83 79 81 76 77 77 81 77 74 69 65 64 64 64
32 48 59 74 84 89 88 91 93 93 90 90 84 80 86 91 95 97 98 97 97 99 94 84 80 81 76 81 78 78 80 79 78 74 65 69 76 76 76 72 72 68 65 66
33 49 66 74 81 87 91 92 92 93 90 87 85 88 94 96 97 97 97 98 97 98 97 90 90 83 76 78 78 76 74 76 78 76 72 73 74 75 77 74 74 74 70 69
30 39 54 71 79 85 87 87 94 95 93 91 90 91 95 98 98 98 98 97 98 98 98 91 89 94 84 77 74 72 70 74 77 76 75 78 79 79 76 75 74 73 72 71
36 43 51 69 84 89 90 90 94 95 91 86 96 96 98 96 98 98 98 99 99 99 96 96 93 90 87 84 79 72 67 70 72 75 76 80 80 79 79 76 77 77 76 74
38 45 55 69 83 88 90 92 97 94 93 85 97 98 98 94 97 98 98 98 98 98 97 97 97 94 87 84 79 71 72 75 78 79 79 83 84 82 81 82 82 83 81 78
39 45 55 68 83 91 95 96 92 91 86 86 96 96 96 92 94 98 98 98 98 97 98 96 96 95 91 87 79 77 79 79 81 83 82 81 84 85 84 85 86 80 77 76
39 44 56 74 86 91 98 96 94 93 86 85 89 94 96 91 90 97 98 98 98 96 96 95 94 92 88 80 78 75 76 76 79 83 84 82 81 85 84 85 86 79 74 70
46 57 71 84 91 97 99 98 98 97 90 80 83 88 94 93 87 92 96 96 97 93 89 90 89 83 74 77 78 79 76 76 79 83 87 81 81 81 82 82 78 73 67 61
54 68 81 89 95 98 98 98 96 93 88 76 72 79 91 93 96 89 88 94 92 90 88 88 80 75 69 70 74 73 74 73 77 79 79 79 80 79 75 68 64 61 60 60
56 78 87 92 97 99 98 93 90 87 86 81 74 76 81 92 95 95 94 87 85 81 77 78 73 61 60 66 68 68 68 68 70 72 73 74 71 71 72 68 67 67 68 66
60 86 91 95 98 97 91 86 85 84 83 82 79 77 81 87 93 94 96 95 91 87 84 78 67 59 55 57 63 65 67 66 67 67 69 70 71 71 72 72 73 73 72 72
72 90 93 96 97 91 88 82 80 83 86 84 83 82 80 79 85 90 93 91 89 90 87 70 59 54 57 57 59 60 62 61 62 66 68 70 71 72 74 74 76 73 72 70
73 93 97 94 91 87 86 84 82 83 87 87 87 86 81 82 83 80 88 88 86 78 69 60 52 51 54 52 54 56 63 63 62 66 71 71 70 72 76 75 71 66 68 74
61 93 98 97 91 89 88 86 87 87 90 89 88 90 89 86 81 79 79 78 74 69 61 54 52 53 54 51 51 52 54 57 61 65 71 75 79 81 79 77 76 70 74 68
52 85 97 98 94 92 89 88 89 91 92 94 92 89 87 88 86 80 69 64 62 63 57 54 55 55 53 54 55 55 57 60 63 66 69 72 72 70 69 72 71 72 64 60

GFSNW_prec_cthk_039.txt.gz
RH
55 64 62 71 90 94 98 91 98 70 74 93 97 98 95 90 84 76 67 60 59 62 66 67 65 65 67 65 66 77 75 67 66 58 58 67 76 83 92 97 95 95 91 60
62 58 49 78 86 98 94 93 98 79 67 86 93 94 96 93 85 80 73 65 60 62 65 71 68 68 69 70 75 81 68 72 73 64 72 83 92 87 89 97 97 94 96 56
60 52 54 72 83 88 95 91 96 90 69 85 89 92 94 93 87 84 73 68 62 65 72 75 74 74 75 76 81 72 64 76 76 80 71 80 96 98 98 96 90 83 86 59
56 54 52 72 80 94 83 99 98 91 90 89 85 92 87 91 94 88 78 75 71 74 77 77 79 78 83 84 74 65 71 79 85 87 88 93 97 97 98 94 79 81 64 65
54 51 51 64 87 93 93 98 99 99 96 95 95 92 89 87 90 86 81 77 80 75 77 78 84 87 87 74 69 69 80 88 91 92 88 92 98 97 98 85 74 76 70 69
52 50 44 60 80 95 95 96 96 97 97 97 94 93 91 89 90 83 80 78 76 77 80 79 85 89 88 78 74 80 85 93 94 87 81 87 88 97 98 88 77 73 78 71
50 48 49 51 73 84 93 97 98 99 96 97 94 93 90 90 87 86 87 82 87 85 80 83 89 91 90 79 76 82 88 93 95 87 88 89 79 89 95 89 78 71 70 71
47 43 39 50 71 87 96 96 98 98 96 95 95 89 83 86 87 91 89 89 89 89 90 91 88 89 84 81 78 78 84 92 93 93 93 82 75 79 94 92 80 81 77 66
59 53 39 48 72 82 92 93 93 96 97 96 94 94 91 91 91 92 88 90 95 96 94 93 93 89 76 75 78 76 86 88 91 93 95 92 77 75 84 90 86 88 84 79
58 58 39 53 72 84 90 96 97 91 92 88 88 87 88 86 90 90 90 97 97 94 94 95 93 85 75 74 71 85 92 91 91 93 96 83 79 73 78 87 88 84 89 88
55 45 54 65 75 85 94 95 95 93 90 87 84 85 82 83 88 92 93 95 92 96 97 97 93 85 76 73 75 77 87 90 89 88 91 88 77 72 71 73 77 83 82 83
47 36 54 69 81 89 93 96 90 89 90 89 84 84 85 87 84 91 95 95 96 97 98 96 92 82 75 74 81 81 84 78 83 78 74 67 74 76 76 71 71 71 71 79
37 35 41 58 74 83 86 86 87 90 96 91 86 82 85 85 88 90 96 97 97 97 97 93 89 86 77 82 80 78 79 82 81 77 70 66 66 74 77 74 74 67 67 69
30 41 44 50 64 73 80 84 88 91 93 88 88 86 88 92 96 98 98 98 98 98 98 90 90 83 81 81 78 76 76 80 79 79 71 71 70 73 77 75 78 71 68 67
29 38 42 49 62 73 80 85 90 93 97 94 90 87 91 95 98 98 98 98 98 98 99 95 89 81 83 76 76 73 71 70 76 77 72 72 75 78 80 76 76 75 73 72
34 37 40 48 67 77 85 89 89 91 97 94 89 96 97 98 98 97 98 98 98 98 97 97 90 83 84 83 74 66 65 67 68 71 72 75 79 81 77 77 76 75 74 73
38 37 41 51 69 77 84 87 88 94 94 93 90 97 98 98 98 98 99 98 98 97 97 97 95 92 86 83 78 71 68 69 68 74 79 80 82 84 82 79 84 85 81 80
35 33 39 51 71 84 90 94 94 91 94 91 92 96 96 98 97 99 98 98 98 98 99 97 96 96 92 89 78 71 72 74 78 80 83 83 86 89 88 88 87 86 88 86
32 32 47 66 82 92 95 95 94 92 93 88 85 94 98 97 95 97 99 98 99 97 98 97 97 94 90 80 79 81 80 79 78 85 86 86 87 90 92 91 92 85 82 82
36 46 68 81 86 95 96 96 94 96 92 85 83 87 92 94 92 90 97 97 97 96 93 91 92 86 76 79 80 81 80 78 79 88 91 90 87 91 90 90 92 88 83 76
38 57 74 82 89 94 94 97 94 96 92 83 76 78 82 93 97 92 89 93 92 89 87 88 85 81 73 74 80 82 82 80 82 85 89 86 86 85 83 81 78 73 71 67
44 68 80 87 91 93 95 92 91 90 90 86 81 75 78 88 95 96 95 87 82 81 78 79 74 67 64 68 75 78 79 79 80 81 80 80 81 80 81 76 72 70 70 69
45 74 85 88 93 95 90 85 86 85 88 88 84 80 79 83 90 94 93 92 88 86 86 76 71 64 60 60 72 75 73 72 72 71 74 77 78 77 75 74 74 74 74 72
54 78 86 88 92 88 86 83 85 86 87 88 86 87 83 82 86 90 91 89 88 89 87 73 62 53 57 58 61 65 67 68 68 69 70 72 75 75 73 73 74 75 74 76
50 77 86 89 88 86 84 85 88 88 90 91 89 90 87 88 84 81 82 86 88 83 72 64 54 51 55 56 57 60 63 65 66 64 64 67 71 70 71 72 74 75 79 74
45 66 83 87 89 87 86 86 88 89 91 93 91 94 93 91 88 84 81 80 80 72 64 56 53 53 54 55 53 53 55 59 63 65 66 68 73 76 77 77 77 76 74 78
43 48 70 87 91 90 92 92 91 90 92 93 94 92 90 90 90 85 77 67 63 64 65 64 59 57 55 55 55 57 57 58 60 62 65 67 71 72 73 75 71 71 75 71

GFSNW_prec_cthk_042.txt.gz
RH
54 56 54 55 77 83 88 94 98 69 77 90 96 95 98 90 87 81 73 69 64 62 61 63 61 61 59 59 60 66 64 70 72 55 50 53 57 70 81 96 90 93 89 53
53 51 48 52 70 85 93 97 88 72 88 89 97 96 98 93 88 82 77 71 61 63 62 64 61 61 61 63 62 64 70 79 67 57 68 70 81 81 84 94 94 88 92 60
53 46 45 50 70 89 95 98 98 87 99 94 91 97 98 95 91 86 81 72 66 66 68 64 66 67 67 68 68 69 76 72 65 64 59 72 92 94 96 98 95 79 71 55
48 46 44 41 68 87 98 99 92 69 96 94 87 89 89 93 93 87 79 75 63 60 64 65 68 67 68 71 74 77 73 72 70 74 78 80 88 92 96 98 94 83 53 62
45 46 45 40 68 85 96 98 94 94 85 86 85 85 83 84 91 84 83 71 70 67 65 62 68 68 72 76 77 76 69 74 78 86 76 81 88 93 97 96 91 82 73 67
44 39 41 39 58 83 96 97 99 94 89 86 88 83 81 85 82 84 76 72 70 70 70 69 68 73 78 80 78 71 76 83 88 84 77 80 88 93 97 93 82 72 77 70
41 40 42 36 53 81 93 95 89 93 94 88 86 80 78 78 78 81 80 76 75 79 79 75 74 77 83 84 74 80 84 83 91 88 82 81 74 87 93 90 77 72 71 70
40 41 44 41 55 76 92 92 92 92 93 87 86 79 81 79 80 80 80 83 83 88 88 85 82 81 86 77 77 82 80 83 92 91 86 70 74 81 88 91 83 75 72 69
44 38 36 52 64 79 89 96 98 98 96 93 84 83 82 80 79 83 87 88 90 94 92 89 87 79 73 66 79 76 78 87 91 87 89 79 73 77 83 89 94 84 76 73
41 40 44 62 68 83 92 97 95 93 92 93 88 82 80 79 82 85 90 90 95 97 95 92 88 79 70 72 69 82 88 94 91 89 91 77 73 74 81 86 94 89 91 87
37 41 39 49 71 85 92 96 92 91 91 91 87 81 83 83 84 87 90 91 94 98 95 92 89 83 69 71 64 78 88 92 90 89 92 86 75 77 76 76 82 85 92 91
21 35 42 47 60 76 89 90 88 88 89 87 85 85 83 83 83 83 88 92 97 96 94 92 88 81 75 68 65 76 82 78 74 72 66 61 72 77 79 79 77 76 78 89
31 31 40 47 54 67 84 88 84 84 87 86 82 79 82 81 80 83 90 93 96 95 97 97 91 87 74 71 69 76 80 78 75 75 66 66 63 73 76 80 76 73 72 75
40 39 38 48 54 63 78 82 85 88 92 91 86 82 82 82 88 94 95 97 96 96 97 95 95 85 80 71 75 76 74 78 75 73 68 65 68 74 75 76 79 74 70 70
34 45 41 49 54 63 75 78 83 86 86 88 87 84 85 91 96 96 97 96 96 97 95 94 87 88 84 79 79 74 70 69 68 68 72 69 72 80 79 78 78 77 75 75
32 44 40 40 50 62 76 80 82 87 90 92 88 87 91 97 98 98 97 98 98 96 95 94 86 80 83 81 75 64 64 65 65 65 70 72 76 80 80 79 79 78 80 80
34 38 39 40 55 72 76 81 85 89 87 93 92 93 97 98 98 98 98 98 98 97 96 96 95 95 87 79 67 66 64 62 64 68 71 77 79 81 80 82 84 86 81 80
30 31 35 41 62 75 81 85 85 88 90 92 91 88 94 98 98 98 98 98 98 97 98 98 97 97 93 88 76 72 70 69 68 71 80 81 83 83 87 87 87 87 84 83
28 35 39 50 68 79 84 85 87 88 89 90 90 87 95 98 97 98 98 98 98 98 98 97 98 96 92 79 77 75 73 72 76 81 81 85 85 88 93 92 90 91 91 92
29 41 63 74 79 82 87 89 89 89 89 89 86 84 90 95 97 93 98 99 99 98 97 95 93 85 78 80 78 79 80 80 81 80 85 88 89 93 93 94 95 89 86 82
30 51 72 81 88 90 90 90 88 90 90 89 83 81 84 90 98 96 93 96 95 95 90 91 88 79 73 72 74 81 83 83 81 84 92 92 88 92 91 91 92 88 84 77
38 61 81 84 90 91 89 87 87 85 89 90 84 82 80 84 96 98 98 94 88 84 82 82 75 69 70 70 77 84 83 81 81 84 89 88 86 87 86 85 82 79 73 72
44 68 83 86 88 89 82 81 83 86 86 87 88 85 82 80 84 95 95 96 91 86 86 77 72 70 65 63 75 81 80 79 78 81 82 82 84 82 83 84 82 78 76 75
49 68 82 85 88 84 83 80 82 84 86 87 89 89 87 82 86 88 92 88 87 88 88 77 62 53 58 63 69 76 78 75 75 74 74 76 80 81 81 79 78 76 76 75
46 62 77 84 84 83 83 82 84 83 86 88 88 88 86 87 83 79 79 82 86 83 77 67 58 53 55 61 63 67 69 69 69 70 69 70 73 76 77 74 73 73 73 73
44 54 65 75 83 83 83 82 82 85 88 90 90 91 91 90 87 83 78 78 78 74 67 59 54 55 56 56 56 57 61 63 65 70 73 70 71 72 74 75 74 73 74 86
45 43 53 64 75 83 85 85 85 87 90 92 94 92 91 90 89 86 82 76 69 65 69 70 66 60 57 57 57 57 58 60 62 64 67 68 71 73 71 73 74 73 82 72